Vancouver, WA

11:15 AM PDT on October 21, 2017 (GMT -0700)
Pearson

Weather History for KVUO - February, 2013

Change the Weather History Date:

Sunday, February 24, 2013

  Actual Average Record
Temperature  
Mean Temperature 44 °F 44 °F  
Max Temperature 51 °F 53 °F 69 °F (1905)
Min Temperature 36 °F 36 °F 22 °F (1962)
Degree Days  
Heating Degree Days 21    
Month to date heating degree days 530  
Since 1 July heating degree days 2953  
Cooling Degree Days 0    
Month to date cooling degree days 0  
Year to date cooling degree days 0  
Moisture  
Dew Point 34 °F    
Average Humidity 68    
Maximum Humidity 92    
Minimum Humidity 44    
Precipitation  
Precipitation T in 0.12 in 1.53 in (1994)
Month to date precipitation 0.80 3.41  
Year to date precipitation 4.20 8.91  
Snow  
Snow 0.00 in - - ()
Month to date snowfall 0.0  
Snow Depth 0.00 in    
Sea Level Pressure  
Sea Level Pressure 30.31 in    
Wind  
Wind Speed 5 mph (SE)    
Max Wind Speed 15 mph    
Max Gust Speed 22 mph    
Visibility 10 miles    
Events Rain    
T = Trace of Precipitation, MM = Missing Value Source: NWS Daily Summary

Daily Weather History Graph

Daily Weather History Graph

Search for Another Location

Airport or City:

Trip Planner

Search our weather history database for the weather conditions in past years. The results will help you decide how hot, cold, wet, or windy it might be!

Date:

Astronomy

Feb. 24, 2013 Rise Set
Actual Time 6:57 AM PST 5:51 PM PST
Civil Twilight 6:27 AM PST 6:21 PM PST
Nautical Twilight 5:52 AM PST 6:55 PM PST
Astronomical Twilight 5:18 AM PST 7:29 PM PST
Moon 5:08 PM PST (2/24) 5:58 AM PST (2/24)
Length of Visible Light 11h 53m
Length of Day
10h 53m
Waxing Gibbous, 99% of the Moon is Illuminated
Feb 24
Waxing Gibbous
Feb 25
Full
Mar 4
Last Quarter
Mar 11
New
Mar 19
First Quarter

Hourly Weather History & Observations

Time (PST) Temp. Windchill Dew Point Humidity Pressure Visibility Wind Dir Wind Speed Gust Speed Precip Events Conditions
12:53 AM 39.0 °F - 35.1 °F 86% 30.44 in 10.0 mi Calm Calm - N/A   Overcast
1:53 AM 36.0 °F - 33.1 °F 89% 30.44 in 10.0 mi Calm Calm - N/A   Overcast
2:53 AM 37.9 °F 35.5 °F 35.1 °F 89% 30.44 in 10.0 mi East 3.5 mph - N/A   Overcast
3:53 AM 37.9 °F 35.5 °F 34.0 °F 86% 30.44 in 10.0 mi East 3.5 mph - N/A   Overcast
4:53 AM 37.9 °F 35.5 °F 34.0 °F 86% 30.43 in 10.0 mi ESE 3.5 mph - N/A   Overcast
5:53 AM 39.0 °F 35.7 °F 34.0 °F 82% 30.43 in 10.0 mi ESE 4.6 mph - N/A   Overcast
6:53 AM 39.0 °F 35.7 °F 34.0 °F 82% 30.43 in 10.0 mi ESE 4.6 mph - N/A   Overcast
7:53 AM 39.0 °F 35.7 °F 34.0 °F 82% 30.42 in 10.0 mi SE 4.6 mph - N/A   Overcast
8:53 AM 41.0 °F 39.0 °F 34.0 °F 76% 30.42 in 10.0 mi SSE 3.5 mph - N/A   Overcast
9:53 AM 42.1 °F 37.7 °F 35.1 °F 76% 30.42 in 10.0 mi ESE 6.9 mph - N/A   Overcast
10:53 AM 44.1 °F 40.8 °F 35.1 °F 71% 30.40 in 10.0 mi SSE 5.8 mph - N/A   Overcast
11:53 AM 46.9 °F - 35.1 °F 63% 30.38 in 10.0 mi SE 5.8 mph - N/A   Overcast
12:53 PM 48.9 °F - 33.1 °F 54% 30.35 in 10.0 mi South 4.6 mph - N/A   Mostly Cloudy
1:53 PM 50.0 °F - 32.0 °F 50% 30.31 in 10.0 mi South 5.8 mph - N/A   Mostly Cloudy
2:53 PM 50.0 °F - 30.9 °F 48% 30.29 in 10.0 mi South 4.6 mph - N/A   Overcast
3:53 PM 51.1 °F - 30.0 °F 44% 30.27 in 10.0 mi South 5.8 mph - N/A   Overcast
4:53 PM 50.0 °F - 30.0 °F 46% 30.24 in 10.0 mi South 3.5 mph - N/A   Overcast
5:53 PM 48.9 °F - 30.0 °F 48% 30.21 in 10.0 mi SSE 3.5 mph - N/A   Mostly Cloudy
6:53 PM 46.0 °F 43.9 °F 33.1 °F 61% 30.19 in 10.0 mi ESE 4.6 mph - N/A   Overcast
7:53 PM 46.0 °F 42.5 °F 34.0 °F 63% 30.16 in 10.0 mi East 6.9 mph - N/A   Overcast
8:53 PM 45.0 °F 40.1 °F 36.0 °F 71% 30.14 in 10.0 mi ESE 9.2 mph - N/A   Overcast
9:53 PM 43.0 °F 38.2 °F 37.0 °F 80% 30.12 in 10.0 mi ESE 8.1 mph - N/A   Overcast
10:53 PM 43.0 °F 38.8 °F 37.0 °F 80% 30.09 in 10.0 mi SE 6.9 mph - 0.00 in Rain Light Rain
11:53 PM 46.9 °F - 33.1 °F 59% 30.06 in 10.0 mi SE 5.8 mph - 0.00 in   Overcast